RYR34BB EPMO-LIRA

Flight info

Callsign RYR34BB
Flight time N/A
Altitude 36000
Route EVINA3J EVINA Z175 SKARY DCT KOPRY DCT ZDA DCT ELGUS DCT XAMIT/N0439F370 DCT ESODU DCT ASPIR DCT MOPUV MOPUV1F
Aircraft B738/M-SDE2E3FGHIRWXY/LB1

Departure

Time N/A
Airport Warsaw Modlin Airport (EPMO)

Arrival

Time 2026-05-06 13:21
Airport Ciampino–G. B. Pastine International Airport (LIRA)
Time Latitude Longitude Altitude Speed Heading
2026-05-06 12:52 42.90490 14.57763 36738 ft 384 kts 205°
2026-05-06 12:52 42.88018 14.56436 36337 ft 379 kts 205°
2026-05-06 12:52 42.85578 14.55127 35980 ft 375 kts 205°
2026-05-06 12:52 42.83160 14.53831 35598 ft 371 kts 206°
2026-05-06 12:53 42.80768 14.52550 35221 ft 368 kts 206°
2026-05-06 12:53 42.78391 14.51277 34850 ft 365 kts 206°
2026-05-06 12:53 42.76031 14.50015 34479 ft 362 kts 206°
2026-05-06 12:53 42.73722 14.48781 34117 ft 360 kts 207°
2026-05-06 12:54 42.71397 14.47540 33729 ft 358 kts 207°
2026-05-06 12:54 42.69079 14.46303 33318 ft 355 kts 207°
2026-05-06 12:54 42.66790 14.45083 32896 ft 353 kts 207°
2026-05-06 12:54 42.64521 14.43875 32690 ft 353 kts 207°
2026-05-06 12:55 42.62186 14.42626 32449 ft 367 kts 207°
2026-05-06 12:55 42.59769 14.41334 32216 ft 381 kts 207°
2026-05-06 12:55 42.57242 14.39991 31978 ft 395 kts 206°
2026-05-06 12:55 42.54645 14.38615 31741 ft 407 kts 206°
2026-05-06 12:56 42.51991 14.37212 31411 ft 409 kts 206°
2026-05-06 12:56 42.49354 14.35821 30992 ft 403 kts 206°
2026-05-06 12:56 42.46828 14.34261 30532 ft 394 kts 216°
2026-05-06 12:56 42.44705 14.32080 30147 ft 384 kts 225°
2026-05-06 12:57 42.42869 14.29518 29819 ft 374 kts 233°
2026-05-06 12:57 42.41436 14.26618 29393 ft 367 kts 241°
2026-05-06 12:57 42.40182 14.23624 28925 ft 364 kts 242°
2026-05-06 12:57 42.38946 14.20663 28527 ft 359 kts 241°
2026-05-06 12:58 42.38117 14.18682 28226 ft 357 kts 241°
2026-05-06 12:58 42.36908 14.15808 27798 ft 354 kts 241°
2026-05-06 12:58 42.35674 14.12891 27355 ft 355 kts 241°
2026-05-06 12:58 42.34442 14.09988 26927 ft 367 kts 241°
2026-05-06 12:59 42.33152 14.06959 26463 ft 373 kts 240°
2026-05-06 12:59 42.31858 14.03930 26005 ft 370 kts 241°
2026-05-06 12:59 42.30578 14.00937 25557 ft 367 kts 240°
2026-05-06 12:59 42.29346 13.98061 25130 ft 363 kts 241°
2026-05-06 13:00 42.28083 13.95113 24690 ft 360 kts 241°
2026-05-06 13:00 42.26830 13.92192 24269 ft 358 kts 240°
2026-05-06 13:00 42.25582 13.89285 23858 ft 356 kts 240°
2026-05-06 13:00 42.24336 13.86386 23362 ft 357 kts 241°
2026-05-06 13:01 42.23091 13.83492 22875 ft 356 kts 240°
2026-05-06 13:01 42.21854 13.80618 22386 ft 352 kts 241°
2026-05-06 13:01 42.20633 13.77786 22040 ft 346 kts 240°
2026-05-06 13:01 42.19424 13.74982 21567 ft 344 kts 240°
2026-05-06 13:02 42.18368 13.72107 21018 ft 344 kts 248°
2026-05-06 13:02 42.17511 13.69084 20535 ft 345 kts 249°
2026-05-06 13:02 42.16680 13.66061 20100 ft 343 kts 249°
2026-05-06 13:02 42.15850 13.63046 19681 ft 342 kts 249°
2026-05-06 13:03 42.15018 13.60052 19235 ft 339 kts 249°
2026-05-06 13:03 42.14190 13.57091 18871 ft 337 kts 248°
2026-05-06 13:03 42.13357 13.54135 18454 ft 337 kts 248°
2026-05-06 13:03 42.12536 13.51231 17995 ft 336 kts 248°
2026-05-06 13:04 42.11695 13.48271 17597 ft 333 kts 248°
2026-05-06 13:04 42.10871 13.45371 17167 ft 331 kts 248°
2026-05-06 13:04 42.10064 13.42529 16763 ft 328 kts 248°
2026-05-06 13:04 42.09251 13.39673 16397 ft 325 kts 248°
2026-05-06 13:05 42.08458 13.36887 16288 ft 314 kts 248°
2026-05-06 13:05 42.07687 13.34182 16129 ft 304 kts 249°
2026-05-06 13:05 42.06943 13.31574 16053 ft 293 kts 248°
2026-05-06 13:05 42.06221 13.29046 15919 ft 286 kts 248°
2026-05-06 13:06 42.05397 13.26633 15613 ft 284 kts 240°
2026-05-06 13:06 42.04375 13.24387 15346 ft 279 kts 238°
2026-05-06 13:06 42.03344 13.22171 15085 ft 276 kts 239°
2026-05-06 13:06 42.02359 13.20012 14983 ft 267 kts 240°
2026-05-06 13:07 42.01411 13.17901 14848 ft 259 kts 240°
2026-05-06 13:07 42.00503 13.15866 14784 ft 249 kts 240°
2026-05-06 13:07 41.99823 13.13779 14638 ft 243 kts 260°
2026-05-06 13:07 41.99784 13.11494 14421 ft 248 kts 275°
2026-05-06 13:08 42.00104 13.09213 14202 ft 255 kts 279°
2026-05-06 13:08 42.00511 13.06845 13924 ft 263 kts 280°
2026-05-06 13:08 42.00927 13.04442 13644 ft 265 kts 280°
2026-05-06 13:08 42.01338 13.02020 13331 ft 267 kts 280°
2026-05-06 13:09 42.01732 12.99643 13021 ft 269 kts 280°
2026-05-06 13:09 42.02132 12.97190 12758 ft 268 kts 280°
2026-05-06 13:09 42.02528 12.94736 12455 ft 269 kts 280°
2026-05-06 13:09 42.02924 12.92287 12188 ft 268 kts 279°
2026-05-06 13:10 42.03339 12.89848 11905 ft 267 kts 281°
2026-05-06 13:10 42.03770 12.87422 11634 ft 265 kts 281°
2026-05-06 13:10 42.04200 12.85018 11356 ft 264 kts 281°
2026-05-06 13:10 42.04626 12.82616 11068 ft 263 kts 281°
2026-05-06 13:11 42.05050 12.80225 10793 ft 263 kts 281°
2026-05-06 13:11 42.05470 12.77844 10639 ft 258 kts 281°
2026-05-06 13:11 42.05879 12.75523 10495 ft 253 kts 280°
2026-05-06 13:11 42.06286 12.73212 10217 ft 254 kts 281°
2026-05-06 13:12 42.06692 12.70897 9866 ft 257 kts 280°
2026-05-06 13:12 42.07106 12.68521 9320 ft 263 kts 280°
2026-05-06 13:12 42.07525 12.66125 8772 ft 264 kts 280°
2026-05-06 13:12 42.07945 12.63723 8259 ft 263 kts 280°
2026-05-06 13:13 42.08365 12.61322 7734 ft 264 kts 280°
2026-05-06 13:13 42.08770 12.59004 7584 ft 248 kts 280°
2026-05-06 13:13 42.09159 12.56797 7352 ft 232 kts 280°
2026-05-06 13:13 42.09346 12.54756 7207 ft 211 kts 258°
2026-05-06 13:14 42.08849 12.53036 7021 ft 194 kts 235°
2026-05-06 13:14 42.07944 12.51726 6606 ft 193 kts 217°
2026-05-06 13:14 42.06740 12.50937 6244 ft 190 kts 203°
2026-05-06 13:14 42.05500 12.50317 5923 ft 191 kts 201°
2026-05-06 13:15 42.04261 12.49708 5666 ft 187 kts 202°
2026-05-06 13:15 42.03051 12.49108 5409 ft 184 kts 200°
2026-05-06 13:15 42.01851 12.48511 5098 ft 182 kts 201°
2026-05-06 13:15 42.00668 12.47924 4752 ft 181 kts 200°
2026-05-06 13:16 41.99493 12.47344 4362 ft 179 kts 199°
2026-05-06 13:16 41.98302 12.47079 4117 ft 175 kts 167°
2026-05-06 13:16 41.97198 12.47726 3943 ft 173 kts 161°
2026-05-06 13:16 41.96103 12.48362 3725 ft 170 kts 159°
2026-05-06 13:17 41.95041 12.49046 3492 ft 168 kts 157°
2026-05-06 13:17 41.94007 12.49748 3267 ft 165 kts 156°
2026-05-06 13:17 41.92983 12.50454 3053 ft 166 kts 156°
2026-05-06 13:17 41.91949 12.51168 2839 ft 167 kts 156°
2026-05-06 13:18 41.90916 12.51883 2604 ft 166 kts 156°
2026-05-06 13:18 41.89909 12.52580 2386 ft 164 kts 156°
2026-05-06 13:18 41.88897 12.53279 2172 ft 163 kts 156°
2026-05-06 13:18 41.87883 12.53982 1962 ft 165 kts 155°
2026-05-06 13:19 41.86853 12.54695 1755 ft 168 kts 155°
2026-05-06 13:19 41.85819 12.55411 1525 ft 164 kts 156°
2026-05-06 13:19 41.84859 12.56077 1354 ft 146 kts 156°
2026-05-06 13:19 41.83982 12.56682 1123 ft 139 kts 156°
2026-05-06 13:20 41.83114 12.57281 906 ft 142 kts 158°
2026-05-06 13:20 41.82244 12.57918 748 ft 144 kts 159°
2026-05-06 13:20 41.81348 12.58503 588 ft 144 kts 160°
2026-05-06 13:20 41.80456 12.59126 421 ft 140 kts 159°
2026-05-06 13:21 41.79719 12.59631 413 ft 90 kts 152°
2026-05-06 13:21 41.79358 12.59880 414 ft 27 kts 152°
2026-05-06 13:21 41.79215 12.59980 407 ft 23 kts 152°
2026-05-06 13:21 41.79104 12.60058 414 ft 9 kts 153°
2026-05-06 13:22 41.79050 12.60026 413 ft 11 kts 242°
2026-05-06 13:22 41.79026 12.59952 405 ft 8 kts 258°
2026-05-06 13:22 41.79056 12.59889 406 ft 10 kts 333°
2026-05-06 13:22 41.79133 12.59835 406 ft 15 kts 332°
2026-05-06 13:23 41.79237 12.59764 403 ft 19 kts 333°
2026-05-06 13:23 41.79369 12.59674 403 ft 23 kts 333°
2026-05-06 13:23 41.79524 12.59565 405 ft 26 kts 332°
2026-05-06 13:23 41.79680 12.59458 405 ft 24 kts 333°
2026-05-06 13:24 41.79826 12.59357 406 ft 23 kts 333°
2026-05-06 13:24 41.79922 12.59292 405 ft 12 kts 332°
2026-05-06 13:24 41.79987 12.59247 406 ft 10 kts 333°
2026-05-06 13:24 41.80025 12.59215 404 ft 5 kts 303°
2026-05-06 13:25 41.80017 12.59169 405 ft 6 kts 244°
2026-05-06 13:25 41.80008 12.59143 403 ft 2 kts 256°
2026-05-06 13:25 41.80010 12.59124 405 ft 1 kts 281°
2026-05-06 13:25 41.80011 12.59119 405 ft 0 kts 283°
2026-05-06 13:33 41.80011 12.59120 405 ft 0 kts 283°